Weather History for VABB - August, 2013

Change the Weather History Date:

Saturday, August 24, 2013

  Actual Average Record
Temperature  
Mean Temperature 81 °F -  
Max Temperature 84 °F 85 °F 91 °F (1998)
Min Temperature 78 °F 77 °F 75 °F (2008)
Cooling Degree Days 16    
Growing Degree Days 31 (Base 50)    
Moisture  
Dew Point 76 °F    
Average Humidity 84    
Maximum Humidity 91    
Minimum Humidity 72    
Precipitation  
Precipitation 0.12 in - - ()
Sea Level Pressure  
Sea Level Pressure 29.69 in    
Wind  
Wind Speed 10 mph ()    
Max Wind Speed 15 mph    
Max Gust Speed 23 mph    
Visibility 1.8 miles    
Events Rain    
Averages and records for this station are not official NWS values.
T = Trace of Precipitation, MM = Missing Value Source: Averaged Metar Reports

Daily Weather History Graph

Daily Weather History Graph

Search for Another Location

Airport or City:

Trip Planner

Search our weather history database for the weather conditions in past years. The results will help you decide how hot, cold, wet, or windy it might be!

Date:

Astronomy

Aug. 24, 2013 Rise Set
Actual Time 6:21 AM IST 6:59 PM IST
Civil Twilight 5:59 AM IST 7:22 PM IST
Nautical Twilight 5:33 AM IST 7:48 PM IST
Astronomical Twilight 5:06 AM IST 8:15 PM IST
Moon 9:18 PM IST (8/24) 9:15 AM IST (8/24)
Length of Visible Light 13h 22m
Length of Day
12h 37m
Waning Gibbous, 87% of the Moon is Illuminated
Aug 24
Waning Gibbous
Aug 28
Last Quarter
Sep 5
New
Sep 12
First Quarter
Sep 19
Full

Hourly Weather History & Observations

Time (IST) Temp. Heat Index Dew Point Humidity Pressure Visibility Wind Dir Wind Speed Gust Speed Precip Events Conditions
12:10 AM 80.6 °F 86.2 °F 75.2 °F 84% 29.71 in 1.9 mi West 12.7 mph - N/A   Haze
12:40 AM 80.6 °F 86.2 °F 75.2 °F 84% 29.71 in 1.9 mi West 11.5 mph - N/A   Haze
1:10 AM 80.6 °F 86.2 °F 75.2 °F 84% 29.68 in 1.9 mi West 11.5 mph - N/A   Haze
1:40 AM 80.6 °F 86.2 °F 75.2 °F 84% 29.68 in 1.9 mi West 12.7 mph - N/A   Haze
2:10 AM 80.6 °F 86.2 °F 75.2 °F 84% 29.68 in 1.9 mi West 12.7 mph - N/A   Haze
2:30 AM 79 °F - 76 °F 88% 29.68 in 1 mi West 3.5 mph - -   Haze
2:40 AM 80.6 °F 86.2 °F 75.2 °F 84% 29.68 in 1.9 mi West 12.7 mph - N/A   Haze
3:10 AM 78.8 °F - 75.2 °F 89% 29.65 in 1.6 mi West 15.0 mph - N/A Rain Light Rain
3:40 AM 80.6 °F 87.1 °F 77.0 °F 89% 29.65 in 1.6 mi West 13.8 mph - N/A   Haze
4:40 AM 78.8 °F - 75.2 °F 89% 29.65 in 1.9 mi West 9.2 mph - N/A   Haze
5:30 AM 78 °F - 76 °F 91% 29.67 in 1 mi WSW 4.6 mph - - Rain Light Drizzle
5:40 AM 80.6 °F 87.1 °F 77.0 °F 89% 29.65 in 1.6 mi West 13.8 mph - N/A   Haze
6:40 AM 80.6 °F 87.1 °F 77.0 °F 89% 29.68 in 1.9 mi West 9.2 mph - N/A   Haze
7:10 AM 80.6 °F 87.1 °F 77.0 °F 89% 29.68 in 1.9 mi West 13.8 mph - N/A   Haze
7:40 AM 80.6 °F 87.1 °F 77.0 °F 89% 29.71 in 1.9 mi West 15.0 mph - N/A   Haze
8:10 AM 80.6 °F 87.1 °F 77.0 °F 89% 29.71 in 1.9 mi West 8.1 mph 19.6 mph N/A   Mostly Cloudy
8:40 AM 82.4 °F 90.9 °F 77.0 °F 84% 29.71 in 1.9 mi West 15.0 mph - N/A   Haze
9:10 AM 82.4 °F 89.5 °F 75.2 °F 79% 29.71 in 1.9 mi West 9.2 mph 20.7 mph N/A   Mostly Cloudy
9:40 AM 82.4 °F 90.9 °F 77.0 °F 84% 29.71 in 1.9 mi West 10.4 mph 21.9 mph N/A   Haze
10:10 AM 82.4 °F 90.9 °F 77.0 °F 84% 29.71 in 1.9 mi West 11.5 mph 23.0 mph N/A   Haze
10:40 AM 84.2 °F 94.1 °F 77.0 °F 79% 29.71 in 1.9 mi West 9.2 mph 20.7 mph N/A   Haze
11:10 AM 82.4 °F 90.9 °F 77.0 °F 84% 29.71 in 1.9 mi WNW 12.7 mph - N/A   Mostly Cloudy
11:30 AM 82 °F - 77 °F 80% 29.73 in 1 mi West 6.9 mph - -   Haze
11:40 AM 82.4 °F 90.9 °F 77.0 °F 84% 29.71 in 1.9 mi WNW 11.5 mph - N/A   Mostly Cloudy
12:10 PM 82.4 °F 90.9 °F 77.0 °F 84% 29.71 in 1.3 mi West 11.5 mph - N/A Rain Light Rain
12:40 PM 82.4 °F 90.9 °F 77.0 °F 84% 29.68 in 1.6 mi West 9.2 mph 20.7 mph N/A   Haze
1:10 PM 82.4 °F 90.9 °F 77.0 °F 84% 29.68 in 1.6 mi West 8.1 mph 19.6 mph N/A   Haze
1:40 PM 80.6 °F 86.2 °F 75.2 °F 84% 29.68 in 1.6 mi WNW 9.2 mph - N/A   Mostly Cloudy
2:10 PM 82.4 °F 90.9 °F 77.0 °F 84% 29.68 in 1.6 mi WSW 11.5 mph 23.0 mph N/A   Haze
2:30 PM 83 °F - 77 °F 77% 29.68 in 1 mi West 9.2 mph - -   Haze
2:40 PM 82.4 °F 89.5 °F 75.2 °F 79% 29.65 in 1.6 mi West 9.2 mph 20.7 mph N/A   Haze
3:40 PM 84.2 °F 92.3 °F 75.2 °F 74% 29.65 in 1.9 mi West 11.5 mph 23.0 mph N/A   Haze
4:10 PM 84.2 °F 92.3 °F 75.2 °F 74% 29.65 in 1.9 mi West 9.2 mph 20.7 mph N/A   Haze
4:40 PM 82.4 °F 89.5 °F 75.2 °F 79% 29.65 in 2.5 mi West 9.2 mph 20.7 mph N/A   Haze
5:10 PM 84.2 °F 92.3 °F 75.2 °F 74% 29.65 in 2.5 mi West 13.8 mph - N/A   Haze
5:30 PM 83 °F - 75 °F 72% 29.66 in 1 mi WNW 6.9 mph - -   Haze
5:40 PM 82.4 °F 89.5 °F 75.2 °F 79% 29.65 in 2.2 mi West 13.8 mph - N/A   Haze
6:10 PM 82.4 °F 89.5 °F 75.2 °F 79% 29.68 in 2.2 mi West 13.8 mph - N/A   Haze
6:40 PM 82.4 °F 90.9 °F 77.0 °F 84% 29.68 in 2.2 mi West 11.5 mph - N/A   Haze
7:10 PM 82.4 °F 89.5 °F 75.2 °F 79% 29.68 in 2.2 mi West 15.0 mph - N/A   Haze
8:30 PM 80 °F - 77 °F 87% 29.70 in 1 mi West 5.8 mph - - Rain Light Rain
8:40 PM 80.6 °F 87.1 °F 77.0 °F 89% 29.71 in 1.9 mi WNW 8.1 mph - N/A   Haze
9:10 PM 80.6 °F 87.1 °F 77.0 °F 89% 29.71 in 1.9 mi West 9.2 mph - N/A   Haze
9:40 PM 80.6 °F 87.1 °F 77.0 °F 89% 29.71 in 1.9 mi West 9.2 mph - N/A   Haze
10:10 PM 80.6 °F 87.1 °F 77.0 °F 89% 29.71 in 1.9 mi West 8.1 mph - N/A   Haze
10:40 PM 80.6 °F 87.1 °F 77.0 °F 89% 29.71 in 1.9 mi West 6.9 mph - N/A   Haze
11:10 PM 80.6 °F 87.1 °F 77.0 °F 89% 29.71 in 1.9 mi West 11.5 mph - N/A   Haze
11:30 PM 81 °F - 76 °F 82% 29.72 in 1 mi West 5.8 mph - - Rain Light Drizzle
11:40 PM 80.6 °F 87.1 °F 77.0 °F 89% 29.71 in 1.9 mi West 9.2 mph - N/A   Haze